Regional Weather Roundup
Issued by NWS Glasgow, MT

Home | Current Version | Previous Version | Text Only | Print | Product List | Glossary On
Versions: 1 2 3 4 5 6 7 8 9 10 11 12 13 14 15 16 17 18 19 20 21 22 23 24 25 26 27 28 29 30 31 32 33 34 35 36 37 38 39 40 41 42 43 44 45 46 47 48 49
000
ASUS45 KGGW 300715
RWRGGW
HOURLY WEATHER ROUNDUP FOR NORTHEAST MONTANA
NATIONAL WEATHER SERVICE GLASGOW MONTANA
100 AM MDT SAT AUG 30 2014

NOTE: "FAIR" INDICATES FEW OR NO CLOUDS BELOW 12,000 FEET WITH NO
SIGNIFICANT WEATHER AND/OR OBSTRUCTIONS TO VISISBILITY.

NORTHEAST MONTANA


CITY           SKY/WX    TMP DP  RH WIND       PRES   REMARKS
GLASGOW        CLEAR     57  52  83 E13       29.86F
PLENTYWOOD       N/A     55  47  74 SE3         N/A
WOLF POINT     CLEAR     57  50  77 E8        29.90F
JORDAN           N/A     58  52  80 SE7       29.87F
WINNETT          N/A     59  53  80 CALM        N/A
SIDNEY         CLEAR     55  52  88 CALM      29.96S
GLENDIVE       CLEAR     57  52  82 SE6       29.95F
MALTA            N/A     60  53  77 E5          N/A
SCOBEY           N/A     54  44  69 SE5       29.90F

FORT PECK REPORTS


CITY           SKY/WX    TMP DP  RH WIND       PRES   REMARKS
FORT PECK        N/A     64  53  67 E20         N/A
THE PINES        N/A     63  52  67 SE8         N/A

SOUTHEAST MONTANA


CITY           SKY/WX    TMP DP  RH WIND       PRES   REMARKS
BILLINGS       PTCLDY    65  52  62 S6        29.86F
MILES CITY     CLEAR     58  50  75 SE8       29.91F
BAKER          CLEAR     53  51  93 SE8       29.98F
LIVINGSTON     PTCLDY    62  48  60 SW9       29.90F

CENTRAL MONTANA


CITY           SKY/WX    TMP DP  RH WIND       PRES   REMARKS
HAVRE          CLEAR     70  51  51 SE12G17   29.71F
LEWISTOWN      MOCLDY    60  51  72 E7        29.85F
GREAT FALLS    MOCLDY    68  42  38 S10       29.78S
CUT BANK       PTCLDY    60  43  53 S3        29.77F
HELENA         MOCLDY    66  43  43 SW3       29.83F
BUTTE          PTCLDY    54  47  77 CALM      29.95S
BOZEMAN        CLOUDY    69  43  38 S12G17    29.90R

WESTERN MONTANA


CITY           SKY/WX    TMP DP  RH WIND       PRES   REMARKS
MISSOULA       CLOUDY    70  36  28 NW10      29.86R
KALISPELL      NOT AVBL

NORTH DAKOTA


CITY           SKY/WX    TMP DP  RH WIND       PRES   REMARKS
WILLISTON      CLEAR     57  50  77 S3        29.95F
DICKINSON      CLEAR     51  48  89 SE8       29.98S
MINOT          CLEAR     52  48  86 SW8       29.97R
BISMARCK       CLEAR     52  51  97 CALM      29.99S

SOUTHERN SASKATCHEWAN


CITY           SKY/WX    TMP DP  RH WIND       PRES   REMARKS
REGINA         CLEAR     52  46  82 SE13      29.90F
ESTEVAN        PTCLDY    50  46  87 SE5       29.96S
SWIFT CURRENT  CLEAR     57  50  77 S18G26    29.76F



USA.gov is the U.S. government's official web portal to all federal, state and local government web resources and services.